88P/Howell (2004)

Japanese version
Home page
Updated on May 5, 2012

---------------------------------------------------------------------

* Profile

* Pictures

* Orbital Elements

Epoch 2004 Apr. 25.0 TT = JDT 2453120.5
T 2004 Apr. 12.55452 TT                                 MPC
q   1.3675247            (2000.0)            P               Q
n   0.17917654     Peri.  235.84428     +0.38331255     +0.92140164
a   3.1161280      Node    56.82043     -0.82026160     +0.37143064
e   0.5611462      Incl.    4.38259     -0.42454964     +0.11427289
P   5.50
From 1388 observations 1997 Dec. 31-2011 Feb. 6, mean residual 0".9.
     Nongravitational parameters A1 = +0.59, A2 = -0.0495.

* Finding Charts

* Magnitudes Graph

        m1 =  5.5 + 5 log d + 25   log r(t - 33)  [   ,310]  (             - 2005 Feb. 16)
        m1 = 12.0 + 5 log d + 10.0 log r          [310,   ]  (2005 Feb. 16 -             )

---------------------------------------------------------------------

The orbital elements are published on M.P.E.C. 2012-J16.
The charts are made with StellaNavigator Ver.2.0 for Windows (AstroArts / ASCII).
The magnitudes graphs are made with Comet for Windows.

---------------------------------------------------------------------

Copyright(C) Seiichi Yoshida (comet@aerith.net). All rights reserved.